Погода в Мангуше

Украина / Донецкая область     47°03′24″N   37°18′28″E
В апреле 2022 года жителям России запретили посещать сайт meteo.paraplan.net по решению Генеральной прокуратуры. Аудитория сайта уменьшилась в 10 раз. Владельцы сайта не видят смысла в поддержке погодного сервера в таких условиях. Сайт будет закрыт в октябре.
темп.,
°C
ветер,
м/с
пор.,
м/с
влажн.,
%
обл.,
%
осадки,
мм/ч
давл.,
гПа
погр.,
м
4 октября, вт
вт400:00+15ююз466977 0.1 1012220
03:00+14ю6880100 1.0 1012395
06:00+15ю697199 1.6 1012488
09:00+15ююз367481 2.3 1014335
12:00+18ю66606 0.3 10141138
15:00+19ююз675223 0.4 10151469
18:00+16юз57627 0.0 1017278
21:00+14сз48650 0.0 1019287
5 октября, ср
ср500:00+12ссз48620 0.0 1020209
03:00+10сз35670 0.0 1021112
06:00+10сз226737 0.0 102355
09:00+13з45550 0.0 1024326
12:00+17з56430 0.0 10241432
15:00+18зюз55405 0.0 10241713
18:00+16зсз364815 0.0 1024156
21:00+13сз36612 0.0 1025152
6 октября, чт
чт600:00+13зсз34597 0.0 102672
03:00+12сз336044 0.0 102658
06:00+11ссз2263100 0.0 102648
09:00+14с1154100 0.0 1026223
12:00+17юз1244100 0.0 10261058
15:00+18юз1342100 0.0 10251452
18:00+15ю34565 0.0 1025133
21:00+14юз22655 0.0 102681
7 октября, пт
пт700:00+14сз22614 0.0 102630
03:00+13ссз22604 0.0 102635
06:00+12с22625 0.0 102630
09:00+16св22525 0.0 1026204
12:00+19вюв22445 0.0 1025837
15:00+20в234043 0.0 10241124
18:00+16вюв34575 0.0 102485
21:00+15св23635 0.0 102444
8 октября, сб
сб800:00+15св466052 0.0 1023107
03:00+14св496393 0.0 1023202
06:00+13св5106579 0.0 1022287
09:00+16всв8125544 0.0 1022643
12:00+19в912445 0.0 10201055
15:00+20всв911395 0.0 10191226
18:00+19всв6124223 0.0 1019346
21:00+18всв71351100 0.0 1018444